This demonstration page uses our WeatherBlox Daily Observations layout. Learn more.

38.89511, -77.03637

Hourly Observations for September 30, 2018

Temp ( °F °C ) Dew Point ( °F °C ) Humidity (%) Winds ( mph kmh ) Pressure ( in mb ) Visibility ( mi km ) Precip ( " mm )
12:52 am 00:52 Mostly Clear 65 18.3 57 13.9 76 76 NNE 7 11 30.28 1026 10 16.0934 0 0
1:52 am 01:52 Clear 64 17.8 56 13.3 75 75 N 5 7 30.29 1026 10 16.0934 0 0
2:52 am 02:52 Clear 63 17.2 56 13.3 78 78 N 3 6 30.29 1026 10 16.0934 0 0
3:52 am 03:52 Clear 62 16.7 56 13.3 80 80 N 3 6 30.29 1026 10 16.0934 0 0
4:52 am 04:52 Clear 62 16.7 55 12.8 78 78 N 3 6 30.3 1026 10 16.0934 0 0
5:52 am 05:52 Mostly Clear 60 15.6 55 12.8 84 84 N 6 9 30.32 1027 10 16.0934 0 0
6:52 am 06:52 Mostly Cloudy 62 16.7 57 13.9 84 84 NE 6 9 30.34 1027 10 16.0934 0 0
7:52 am 07:52 Cloudy 63 17.2 56 13.3 78 78 ENE 6 9 30.35 1028 10 16.0934 0 0
8:52 am 08:52 Cloudy 64 17.8 53 11.7 68 68 NE 7 11 30.36 1028 10 16.0934 0 0
9:52 am 09:52 Cloudy 67 19.4 53 11.7 61 61 NE 7 11 30.37 1028 10 16.0934 0 0
10:52 am 10:52 Mostly Cloudy 69 20.6 53 11.7 57 57 NNE 3 6 30.37 1029 10 16.0934 0 0
11:52 am 11:52 Mostly Sunny 72 22.2 52 11.1 50 50 S 3 6 30.36 1028 10 16.0934 0 0
12:52 pm 12:52 Mostly Sunny 74 23.3 54 12.2 50 50 SSW 6 9 30.35 1028 10 16.0934 0 0
1:52 pm 13:52 Mostly Sunny 74 23.3 57 13.9 56 56 S 7 11 30.33 1027 10 16.0934 0 0
2:52 pm 14:52 Partly Cloudy 75 23.9 57 13.9 54 54 SSE 7 11 30.31 1026 10 16.0934 0 0
3:52 pm 15:52 Mostly Sunny 76 24.4 60 15.6 58 58 S 8 13 30.3 1026 10 16.0934 0 0
4:52 pm 16:52 Partly Cloudy 75 23.9 61 16.1 62 62 SSW 8 13 30.29 1026 10 16.0934 0 0
5:52 pm 17:52 Partly Cloudy 74 23.3 61 16.1 64 64 S 9 15 30.29 1026 10 16.0934 0 0
6:52 pm 18:52 Mostly Cloudy 71 21.7 60 15.6 68 68 S 5 7 30.28 1025 10 16.0934 0 0
7:52 pm 19:52 Cloudy 71 21.7 61 16.1 71 71 SSE 3 6 30.28 1026 10 16.0934 0 0
8:52 pm 20:52 Cloudy 70 21.1 62 16.7 76 76 S 6 9 30.29 1026 10 16.0934 0 0
9:52 pm 21:52 Mostly Cloudy 68 20 63 17.2 84 84 S 8 13 30.29 1026 10 16.0934 0 0
10:52 pm 22:52 Mostly Clear 68 20 62 16.7 81 81 S 7 11 30.3 1026 10 16.0934 0 0
11:52 pm 23:52 Mostly Clear 66 18.9 62 16.7 87 87 S 6 9 30.31 1026 10 16.0934 0 0

Powered by AerisWeather